Find Local Weather

World > North America > United States > Washington

Marblemount, Washington Regional Weather

Lat: 48.53N, Lon: 121.45W
Wx Zone: WAZ567
Feedback
Expires:201810190100;;393361
ASUS46 KSEW 190010
RWRWA 

WASHINGTON REGIONAL WEATHER ROUNDUP
NATIONAL WEATHER SERVICE SEATTLE WA
500 PM PDT THU OCT 18 2018

NOTE:"FAIR" INDICATES FEW OR NO CLOUDS BELOW 12,000 FEET WITH NO 
SIGNIFICANT WEATHER AND/OR OBSTRUCTIONS TO VISIBILITY.


WAZ019-023-024-040-567>569-190100-
CASCADE MOUNTAINS AND COLUMBIA GORGE
  
CITY           SKY/WX    TMP DP  RH WIND       PRES   REMARKS
STAMPEDE PASS  SUNNY     58  38  47 VRB3      30.23F                  
6HR MIN TEMP:  57; 6HR MAX TEMP:  65;                                

TROUTDALE, OR  SUNNY     71  41  33 CALM      30.15S                  
6HR MIN TEMP:  59; 6HR MAX TEMP:  72;                                

HOOD RIVER, OR CLEAR     63  37  39 CALM      30.14S                  
THE DALLES, OR SUNNY     68  36  30 CALM      30.13F                  
6HR MIN TEMP:  50; 6HR MAX TEMP:  68;                                

$$


SKY/WX - Weather  TMP - Temperature  DP - Dew Point  RH - Relative Humidity
WIND - Wind Direction/Speed PRES - Barometric Pressure